Weather History for KJZI - March, 2014

Change the Weather History Date:

Monday, March 17, 2014

  Actual Average (KCHS) Record (KCHS)
Temperature  
Mean Temperature 52 °F 58 °F  
Max Temperature 60 °F 70 °F 89 °F (1945)
Min Temperature 44 °F 47 °F 28 °F (1954)
Degree Days  
Heating Degree Days 13 8  
Month to date heating degree days 156  
Since 1 July heating degree days 1792  
Cooling Degree Days 0 1  
Month to date cooling degree days 15  
Year to date cooling degree days 22  
Growing Degree Days 2 (Base 50)    
Moisture  
Dew Point 53 °F    
Average Humidity 100    
Maximum Humidity 100    
Minimum Humidity 100    
Precipitation  
Precipitation 0.00 in 0.12 in 3.16 in (1983)
Month to date precipitation 2.01  
Year to date precipitation 8.68  
Sea Level Pressure  
Sea Level Pressure 29.77 in    
Wind  
Wind Speed 6 mph (North)    
Max Wind Speed 14 mph    
Max Gust Speed 20 mph    
Visibility 6 miles    
Events Fog , Rain    
T = Trace of Precipitation, MM = Missing Value Source: NWS Daily Summary

Daily Weather History Graph

Daily Weather History Graph

Search for Another Location

Airport or City:

Trip Planner

Search our weather history database for the weather conditions in past years. The results will help you decide how hot, cold, wet, or windy it might be!

Date:

Astronomy

Mar. 17, 2014 Rise Set
Actual Time 7:27 AM EDT 7:29 PM EDT
Civil Twilight 7:03 AM EDT 7:54 PM EDT
Nautical Twilight 6:34 AM EDT 8:22 PM EDT
Astronomical Twilight 6:05 AM EDT 8:51 PM EDT
Moon 8:38 PM EDT (3/17) 7:46 AM EDT (3/17)
Length of Visible Light 12h 50m
Length of Day
12h 01m
Full, 99% of the Moon is Illuminated
Mar 17
Full
Mar 23
Last Quarter
Mar 30
New
Apr 7
First Quarter
Apr 15
Full

Hourly Weather History & Observations

Time (EDT) Temp. Windchill Dew Point Humidity Pressure Visibility Wind Dir Wind Speed Gust Speed Precip Events Conditions
12:15 AM 57.2 °F - 57.2 °F 100% 29.76 in 3.0 mi West 5.8 mph - 0.00 in   Clear
12:35 AM 59.0 °F - 59.0 °F 100% 29.76 in 4.0 mi West 5.8 mph - 0.00 in   Clear
12:55 AM 60.8 °F - 60.8 °F 100% 29.78 in 5.0 mi WSW 5.8 mph - 0.00 in   Mostly Cloudy
1:15 AM 60.8 °F - 60.8 °F 100% 29.77 in 7.0 mi West 6.9 mph - 0.00 in   Overcast
1:35 AM 60.8 °F - 60.8 °F 100% 29.76 in 6.0 mi WSW 6.9 mph - 0.00 in   Overcast
1:55 AM 60.8 °F - 60.8 °F 100% 29.75 in 5.0 mi WSW 5.8 mph - 0.00 in   Mostly Cloudy
2:15 AM 60.8 °F - 60.8 °F 100% 29.74 in 7.0 mi WSW 8.1 mph - 0.00 in   Mostly Cloudy
2:35 AM 60.8 °F - 60.8 °F 100% 29.73 in 8.0 mi WSW 8.1 mph - 0.00 in   Mostly Cloudy
2:55 AM 60.8 °F - 60.8 °F 100% 29.72 in 8.0 mi West 6.9 mph - 0.00 in   Scattered Clouds
3:15 AM 60.8 °F - 60.8 °F 100% 29.72 in 8.0 mi WSW 4.6 mph - 0.00 in   Partly Cloudy
3:35 AM 60.8 °F - 60.8 °F 100% 29.71 in 8.0 mi Calm Calm - 0.00 in   Scattered Clouds
3:55 AM 60.8 °F - 60.8 °F 100% 29.71 in 6.0 mi West 9.2 mph - 0.00 in Rain Light Rain
4:15 AM 60.8 °F - 60.8 °F 100% 29.71 in 7.0 mi WSW 8.1 mph - 0.00 in   Overcast
4:35 AM 60.8 °F - 60.8 °F 100% 29.70 in 7.0 mi Calm Calm - 0.00 in   Overcast
4:55 AM 60.8 °F - 60.8 °F 100% 29.69 in 7.0 mi Calm Calm - 0.00 in   Light Drizzle
5:15 AM 60.8 °F - 60.8 °F 100% 29.70 in 5.0 mi Calm Calm - 0.00 in Rain Light Rain
5:35 AM 60.8 °F - 60.8 °F 100% 29.69 in 10.0 mi SSW 4.6 mph - 0.00 in   Mostly Cloudy
5:55 AM 60.8 °F - 60.8 °F 100% 29.69 in 5.0 mi SSW 6.9 mph - 0.00 in Rain Light Rain
6:15 AM 60.8 °F - 60.8 °F 100% 29.71 in 5.0 mi WNW 4.6 mph - 0.00 in Rain Light Rain
6:35 AM 60.8 °F - 60.8 °F 100% 29.72 in 3.0 mi Calm Calm - 0.00 in Rain Light Rain
6:55 AM 60.8 °F - 60.8 °F 100% 29.71 in 4.0 mi Calm Calm - 0.00 in Rain Light Rain
7:15 AM 60.8 °F - 60.8 °F 100% 29.72 in 5.0 mi NW 4.6 mph - 0.00 in Rain Light Rain
7:35 AM 60.8 °F - 60.8 °F 100% 29.74 in 5.0 mi Calm Calm - 0.00 in Rain Light Rain
7:55 AM 60.8 °F - 60.8 °F 100% 29.73 in 7.0 mi Calm Calm - 0.00 in Rain Light Rain
8:15 AM 59.0 °F - 59.0 °F 100% 29.73 in 4.0 mi Calm Calm - 0.00 in Rain Light Rain
8:35 AM 59.0 °F - 59.0 °F 100% 29.72 in 2.5 mi Calm Calm - 0.00 in Rain Light Rain
8:55 AM 59.0 °F - 59.0 °F 100% 29.72 in 1.8 mi Calm Calm - 0.00 in   Light Drizzle
9:15 AM 60.8 °F - 60.8 °F 100% 29.71 in 2.5 mi Calm Calm - 0.00 in   Light Drizzle
9:35 AM 60.8 °F - 60.8 °F 100% 29.71 in 2.0 mi Calm Calm - 0.00 in   Overcast
9:55 AM 60.8 °F - 60.8 °F 100% 29.73 in 5.0 mi Calm Calm - 0.00 in   Overcast
10:15 AM 60.8 °F - 60.8 °F 100% 29.73 in 3.0 mi Calm Calm - 0.00 in   Overcast
10:35 AM 57.2 °F - 57.2 °F 100% 29.76 in 1.0 mi North 13.8 mph 19.6 mph 0.00 in   Overcast
10:55 AM 51.8 °F - 51.8 °F 100% 29.77 in 0.5 mi NNE 12.7 mph 19.6 mph 0.00 in Fog Fog
11:15 AM 50.0 °F - 50.0 °F 100% 29.79 in 1.8 mi North 10.4 mph - 0.00 in Rain Light Rain
11:35 AM 51.8 °F - 51.8 °F 100% 29.78 in 0.8 mi North 8.1 mph - 0.00 in   Overcast
11:55 AM 51.8 °F - 51.8 °F 100% 29.81 in 2.5 mi Calm Calm - 0.00 in   Overcast
12:15 PM 51.8 °F - 51.8 °F 100% 29.81 in 2.5 mi NNE 9.2 mph - 0.00 in   Overcast
12:35 PM 51.8 °F - 51.8 °F 100% 29.82 in 2.5 mi NNE 5.8 mph - 0.00 in Rain Light Rain
12:55 PM 51.8 °F - 51.8 °F 100% 29.81 in 2.5 mi North 5.8 mph - 0.00 in Rain Light Rain
1:15 PM 51.8 °F - 51.8 °F 100% 29.81 in 5.0 mi North 8.1 mph - 0.00 in Rain Light Rain
1:35 PM 50.0 °F - 50.0 °F 100% 29.82 in 9.0 mi North 9.2 mph - 0.00 in Rain Light Rain
1:55 PM 48.2 °F - 48.2 °F 100% 29.79 in 3.0 mi North 10.4 mph - 0.00 in Rain Light Rain
2:15 PM 48.2 °F - 48.2 °F 100% 29.80 in 7.0 mi Calm Calm - 0.00 in Rain Light Rain
2:35 PM 48.2 °F - 48.2 °F 100% 29.81 in 4.0 mi North 9.2 mph - 0.00 in Rain Light Rain
2:55 PM 48.2 °F - 48.2 °F 100% 29.81 in 6.0 mi NNE 5.8 mph - 0.00 in Rain Light Rain
3:15 PM 48.2 °F - 48.2 °F 100% 29.79 in 7.0 mi NE 9.2 mph - 0.00 in   Light Drizzle
3:35 PM 48.2 °F - 48.2 °F 100% 29.80 in 10.0 mi NE 10.4 mph - 0.00 in Rain Light Rain
3:55 PM 48.2 °F - 48.2 °F 100% 29.78 in 5.0 mi NE 8.1 mph - 0.00 in   Light Drizzle
4:15 PM 48.2 °F - 48.2 °F 100% 29.79 in 10.0 mi NE 8.1 mph - 0.00 in   Overcast
4:35 PM 48.2 °F - 48.2 °F 100% 29.77 in 10.0 mi NE 11.5 mph - 0.00 in   Overcast
4:55 PM 46.4 °F 42.9 °F 46.4 °F 100% 29.79 in 9.0 mi NE 6.9 mph - 0.00 in   Overcast
5:15 PM 46.4 °F 44.3 °F 46.4 °F 100% 29.82 in 1.5 mi NNE 4.6 mph - 0.00 in Rain Rain
5:35 PM 46.4 °F 42.4 °F 46.4 °F 100% 29.80 in 1.8 mi NE 8.1 mph - 0.00 in Rain Light Rain
5:55 PM 46.4 °F 41.9 °F 46.4 °F 100% 29.80 in 2.5 mi NE 9.2 mph - 0.00 in Rain Rain
6:15 PM 46.4 °F 42.9 °F 46.4 °F 100% 29.80 in 3.0 mi NE 6.9 mph - 0.00 in Rain Light Rain
6:35 PM 46.4 °F 41.5 °F 46.4 °F 100% 29.79 in 3.0 mi ENE 10.4 mph - 0.00 in   Overcast
6:55 PM 46.4 °F 41.1 °F 46.4 °F 100% 29.76 in 3.0 mi ENE 11.5 mph 16.1 mph 0.00 in Rain Light Rain
7:15 PM 46.4 °F 41.1 °F 46.4 °F 100% 29.77 in 10.0 mi ENE 11.5 mph 17.3 mph 0.00 in   Overcast
7:35 PM 46.4 °F 40.4 °F 46.4 °F 100% 29.76 in 7.0 mi ENE 13.8 mph 17.3 mph 0.00 in Rain Light Rain
7:55 PM 46.4 °F 41.5 °F 46.4 °F 100% 29.76 in 5.0 mi ENE 10.4 mph - 0.00 in Rain Light Rain
8:15 PM 46.4 °F 41.1 °F 46.4 °F 100% 29.82 in 5.0 mi North 11.5 mph - 0.00 in Rain Light Rain
8:35 PM 46.4 °F 41.9 °F 46.4 °F 100% 29.82 in 7.0 mi North 9.2 mph - 0.00 in Rain Light Rain
8:55 PM 46.4 °F 41.5 °F 46.4 °F 100% 29.83 in 10.0 mi NNE 10.4 mph - 0.00 in   Overcast
9:15 PM 44.6 °F 39.2 °F 44.6 °F 100% 29.82 in 10.0 mi NNE 10.4 mph - 0.00 in   Overcast
9:35 PM 44.6 °F 39.2 °F 44.6 °F 100% 29.82 in 10.0 mi North 10.4 mph - 0.00 in   Overcast
9:55 PM 44.6 °F 39.2 °F 44.6 °F 100% 29.83 in 10.0 mi NNE 10.4 mph - 0.00 in   Overcast
10:15 PM 44.6 °F 38.4 °F 44.6 °F 100% 29.84 in 10.0 mi NNE 12.7 mph - 0.00 in   Overcast
10:35 PM 44.6 °F 38.8 °F 44.6 °F 100% 29.85 in 10.0 mi North 11.5 mph - 0.00 in   Overcast
10:55 PM 44.6 °F 38.8 °F 44.6 °F 100% 29.84 in 10.0 mi NNE 11.5 mph 16.1 mph 0.00 in   Overcast
11:15 PM 44.6 °F 38.4 °F 44.6 °F 100% 29.85 in 10.0 mi North 12.7 mph - 0.00 in   Overcast
11:35 PM 44.6 °F 39.7 °F 44.6 °F 100% 29.85 in 10.0 mi North 9.2 mph - 0.00 in   Overcast
11:55 PM 44.6 °F 38.8 °F 44.6 °F 100% 29.84 in 10.0 mi NNE 11.5 mph - 0.00 in   Overcast